| time (UTC) | temp C | wind direction | speed KPH | gust KPH | rain 1hr cm | rain 24hr cm | rain mn cm | humidity % | barometer mb |
| 20260510044539 | 13 | 89 | 4.8 | 16.1 | 0.00 | 0.03 | 0.03 | 57 | 1040.9 |
| 20260510043041 | 13 | 120 | 4.8 | 12.9 | 0.00 | 0.03 | 0.03 | 58 | 1040.9 |
| 20260510041537 | 13 | 200 | 4.8 | 14.5 | 0.00 | 0.03 | 0.03 | 58 | 1040.8 |
| 20260510040036 | 13 | 126 | 6.4 | 12.9 | 0.00 | 0.03 | 0.03 | 58 | 1041.0 |
| 20260510034541 | 13 | 114 | 3.2 | 12.9 | 0.00 | 0.03 | 0.03 | 59 | 1041.0 |
| 20260510033032 | 13 | 198 | 1.6 | 9.7 | 0.00 | 0.03 | 0.03 | 59 | 1041.2 |
| 20260510031532 | 13 | 195 | 4.8 | 14.5 | 0.00 | 0.03 | 0.03 | 59 | 1041.4 |
| 20260510030031 | 13 | 182 | 3.2 | 11.3 | 0.00 | 0.03 | 0.03 | 59 | 1041.6 |
| 20260510024530 | 13 | 183 | 3.2 | 9.7 | 0.00 | 0.03 | 0.03 | 60 | 1041.7 |
| 20260510023028 | 12 | 154 | 3.2 | 12.9 | 0.00 | 0.03 | 0.03 | 61 | 1041.9 |
| 20260510021526 | 12 | 209 | 4.8 | 12.9 | 0.00 | 0.03 | 0.03 | 62 | 1041.9 |
| 20260510020024 | 12 | 223 | 1.6 | 14.5 | 0.00 | 0.03 | 0.03 | 65 | 1042.0 |
| 20260510014519 | 12 | 124 | 3.2 | 12.9 | 0.00 | 0.03 | 0.03 | 70 | 1042.1 |
| 20260510013016 | 11 | 140 | 1.6 | 12.9 | 0.00 | 0.03 | 0.03 | 74 | 1042.4 |
| 20260510011525 | 10 | 150 | 3.2 | 14.5 | 0.00 | 0.03 | 0.03 | 76 | 1042.7 |
| 20260510010010 | 10 | 147 | 3.2 | 12.9 | 0.00 | 0.03 | 0.03 | 76 | 1042.7 |
| 20260510004512 | 10 | 153 | 3.2 | 9.7 | 0.00 | 0.03 | 0.03 | 76 | 1042.5 |
| 20260510003008 | 10 | 158 | 1.6 | 9.7 | 0.00 | 0.03 | 0.03 | 76 | 1042.6 |
| 20260510001506 | 10 | 167 | 1.6 | 11.3 | 0.00 | 0.03 | 0.03 | 76 | 1042.6 |
| 20260510000013 | 10 | 186 | 1.6 | 6.4 | 0.00 | 0.03 | 0.03 | 77 | 1042.6 |
| 20260509234504 | 10 | 183 | 1.6 | 11.3 | 0.00 | 0.03 | 0.03 | 77 | 1042.6 |
| 20260509233002 | 10 | 160 | 3.2 | 11.3 | 0.00 | 0.03 | 0.03 | 77 | 1042.5 |
| 20260509231500 | 10 | 156 | 3.2 | 8.0 | 0.03 | 0.03 | 0.03 | 77 | 1042.4 |
| 20260509230100 | 10 | 148 | 1.6 | 8.0 | 0.03 | 0.03 | 0.03 | 76 | 1042.4 |
| 20260509224558 | 10 | 191 | 0.0 | 12.9 | 0.03 | 0.03 | 0.03 | 76 | 1042.2 |
| 20260509223102 | 10 | 164 | 0.0 | 8.0 | 0.03 | 0.03 | 0.03 | 76 | 1042.2 |
| 20260509221552 | 10 | 203 | 0.0 | 4.8 | 0.00 | 0.00 | 0.00 | 76 | 1042.1 |
| 20260509220049 | 9 | 177 | 0.0 | 4.8 | 0.00 | 0.00 | 0.00 | 76 | 1041.8 |
| 20260509214546 | 9 | 147 | 1.6 | 6.4 | 0.00 | 0.00 | 0.00 | 76 | 1041.5 |
| 20260509213044 | 9 | 142 | 1.6 | 6.4 | 0.00 | 0.00 | 0.00 | 76 | 1041.3 |
| 20260509211544 | 9 | 185 | 0.0 | 6.4 | 0.00 | 0.00 | 0.00 | 76 | 1041.1 |
| 20260509210049 | 9 | 159 | 1.6 | 9.7 | 0.00 | 0.00 | 0.00 | 76 | 1040.9 |
| 20260509204549 | 9 | 186 | 1.6 | 11.3 | 0.00 | 0.00 | 0.00 | 76 | 1040.8 |
| 20260509203037 | 9 | 158 | 3.2 | 9.7 | 0.00 | 0.00 | 0.00 | 76 | 1040.8 |
| 20260509201538 | 10 | 128 | 1.6 | 8.0 | 0.00 | 0.00 | 0.00 | 76 | 1040.7 |
| 20260509200036 | 10 | 123 | 1.6 | 12.9 | 0.00 | 0.00 | 0.00 | 76 | 1040.5 |
| 20260509194536 | 10 | 152 | 0.0 | 4.8 | 0.00 | 0.00 | 0.00 | 76 | 1040.4 |
| 20260509193031 | 10 | 123 | 4.8 | 14.5 | 0.00 | 0.00 | 0.00 | 76 | 1040.1 |
| 20260509191529 | 10 | 213 | 1.6 | 12.9 | 0.00 | 0.00 | 0.00 | 76 | 1040.0 |
| 20260509190032 | 10 | 205 | 0.0 | 9.7 | 0.00 | 0.03 | 0.00 | 76 | 1039.9 |
| 20260509184541 | 10 | 203 | 1.6 | 8.0 | 0.00 | 0.03 | 0.00 | 76 | 1039.8 |
| 20260509183029 | 10 | 201 | 1.6 | 8.0 | 0.00 | 0.03 | 0.00 | 76 | 1039.8 |
| 20260509181525 | 10 | 164 | 1.6 | 8.0 | 0.00 | 0.03 | 0.00 | 75 | 1039.8 |
| 20260509180024 | 10 | 119 | 0.0 | 6.4 | 0.00 | 0.03 | 0.00 | 76 | 1039.7 |
| 20260509174523 | 10 | 205 | 1.6 | 8.0 | 0.00 | 0.03 | 0.00 | 75 | 1039.7 |
| 20260509173021 | 10 | 175 | 1.6 | 14.5 | 0.00 | 0.03 | 0.00 | 75 | 1039.7 |
| 20260509171521 | 10 | 148 | 0.0 | 8.0 | 0.00 | 0.03 | 0.00 | 75 | 1039.7 |
| 20260509170020 | 10 | 182 | 3.2 | 9.7 | 0.00 | 0.03 | 0.00 | 75 | 1039.7 |
| 20260509164518 | 10 | 180 | 1.6 | 11.3 | 0.00 | 0.03 | 0.00 | 75 | 1039.8 |
| 20260509163022 | 10 | 150 | 0.0 | 9.7 | 0.00 | 0.03 | 0.00 | 75 | 1039.8 |
| 20260509161516 | 10 | 129 | 1.6 | 9.7 | 0.00 | 0.03 | 0.00 | 75 | 1039.7 |
| 20260509160016 | 10 | 194 | 1.6 | 6.4 | 0.00 | 0.03 | 0.00 | 74 | 1039.9 |
| 20260509154516 | 10 | 181 | 3.2 | 8.0 | 0.00 | 0.03 | 0.00 | 74 | 1039.9 |
| 20260509153029 | 10 | 150 | 3.2 | 6.4 | 0.00 | 0.03 | 0.00 | 74 | 1040.0 |
| 20260509151514 | 10 | 207 | 3.2 | 8.0 | 0.00 | 0.03 | 0.00 | 74 | 1040.0 |
| 20260509150016 | 10 | 180 | 1.6 | 6.4 | 0.00 | 0.03 | 0.00 | 73 | 1040.0 |
| 20260509144524 | 10 | 169 | 3.2 | 12.9 | 0.00 | 0.03 | 0.00 | 73 | 1039.9 |
| 20260509143013 | 10 | 197 | 3.2 | 12.9 | 0.00 | 0.03 | 0.00 | 73 | 1040.0 |
| 20260509141515 | 10 | 193 | 4.8 | 12.9 | 0.00 | 0.03 | 0.00 | 72 | 1039.8 |
| 20260509140008 | 10 | 159 | 1.6 | 9.7 | 0.00 | 0.03 | 0.03 | 72 | 1040.0 |
| 20260509134506 | 10 | 233 | 3.2 | 12.9 | 0.00 | 0.03 | 0.03 | 72 | 1039.8 |
| 20260509133013 | 10 | 159 | 4.8 | 12.9 | 0.00 | 0.03 | 0.03 | 71 | 1040.0 |
| 20260509131506 | 10 | 192 | 3.2 | 9.7 | 0.00 | 0.03 | 0.03 | 71 | 1040.2 |
| 20260509130005 | 10 | 108 | 3.2 | 9.7 | 0.00 | 0.03 | 0.03 | 70 | 1040.2 |
| 20260509124506 | 10 | 160 | 3.2 | 14.5 | 0.00 | 0.03 | 0.03 | 70 | 1040.1 |
| 20260509123003 | 10 | 188 | 3.2 | 8.0 | 0.00 | 0.03 | 0.03 | 69 | 1040.4 |
| 20260509121508 | 10 | 96 | 3.2 | 11.3 | 0.00 | 0.03 | 0.03 | 69 | 1040.2 |
| 20260509120003 | 10 | 184 | 0.0 | 4.8 | 0.00 | 0.03 | 0.03 | 69 | 1040.2 |
| 20260509114501 | 10 | 184 | 0.0 | 4.8 | 0.00 | 0.03 | 0.03 | 68 | 1040.0 |
| 20260509113106 | 10 | 184 | 1.6 | 6.4 | 0.00 | 0.03 | 0.03 | 68 | 1039.9 |
| 20260509111607 | 10 | 186 | 3.2 | 14.5 | 0.00 | 0.03 | 0.03 | 68 | 1039.9 |
| 20260509110106 | 10 | 125 | 3.2 | 12.9 | 0.00 | 0.03 | 0.03 | 67 | 1039.9 |
| 20260509104558 | 10 | 176 | 0.0 | 6.4 | 0.00 | 0.03 | 0.03 | 67 | 1039.8 |
| 20260509103105 | 10 | 177 | 0.0 | 0.0 | 0.00 | 0.03 | 0.03 | 67 | 1039.8 |
| 20260509101623 | 10 | 177 | 0.0 | 1.6 | 0.00 | 0.03 | 0.03 | 67 | 1039.9 |
| 20260509100058 | 10 | 177 | 1.6 | 6.4 | 0.00 | 0.03 | 0.03 | 66 | 1039.8 |
| 20260509094603 | 10 | 177 | 0.0 | 6.4 | 0.00 | 0.03 | 0.03 | 66 | 1039.9 |
| 20260509093105 | 10 | 148 | 0.0 | 0.0 | 0.00 | 0.03 | 0.03 | 65 | 1039.8 |
| 20260509091602 | 10 | 148 | 0.0 | 0.0 | 0.00 | 0.03 | 0.03 | 65 | 1039.7 |
| 20260509084553 | 11 | 148 | 0.0 | 0.0 | 0.00 | 0.03 | 0.03 | 64 | 1039.6 |
| 20260509083051 | 11 | 147 | 0.0 | 0.0 | 0.00 | 0.03 | 0.03 | 64 | 1039.4 |
| 20260509081553 | 11 | 147 | 0.0 | 6.4 | 0.00 | 0.03 | 0.03 | 64 | 1039.2 |
| 20260509080049 | 11 | 163 | 0.0 | 8.0 | 0.00 | 0.03 | 0.03 | 63 | 1039.0 |
| 20260509074550 | 11 | 163 | 4.8 | 9.7 | 0.00 | 0.03 | 0.03 | 63 | 1038.8 |
| 20260509073056 | 11 | 164 | 0.0 | 4.8 | 0.00 | 0.03 | 0.03 | 63 | 1038.7 |
| 20260509071554 | 11 | 164 | 0.0 | 4.8 | 0.00 | 0.03 | 0.03 | 63 | 1038.4 |
| 20260509070048 | 12 | 164 | 1.6 | 4.8 | 0.00 | 0.03 | 0.03 | 63 | 1038.4 |
| 20260509064558 | 12 | 206 | 0.0 | 9.7 | 0.00 | 0.03 | 0.03 | 63 | 1038.3 |
| 20260509063046 | 12 | 210 | 3.2 | 11.3 | 0.00 | 0.03 | 0.03 | 63 | 1038.3 |
| 20260509061544 | 12 | 176 | 1.6 | 8.0 | 0.00 | 0.03 | 0.03 | 63 | 1038.2 |
| 20260509060044 | 12 | 78 | 3.2 | 11.3 | 0.00 | 0.03 | 0.03 | 63 | 1038.2 |
| 20260509054555 | 12 | 188 | 1.6 | 12.9 | 0.00 | 0.03 | 0.03 | 64 | 1038.2 |
| 20260509053047 | 12 | 148 | 3.2 | 12.9 | 0.00 | 0.03 | 0.03 | 64 | 1038.2 |
| 20260509051542 | 12 | 181 | 1.6 | 12.9 | 0.00 | 0.03 | 0.03 | 64 | 1038.1 |
| 20260509050040 | 12 | 161 | 1.6 | 12.9 | 0.00 | 0.03 | 0.03 | 65 | 1038.1 |